Location: Staunton
(38.1490°N, 79.0720°W)
Time: 14:47:47
(UTC-04:00)

ISS - Pass Details

Date: 20 July 2017
Orbit: 400 x 408 km, 51.6° (Epoch: 21 July)

Event Time Altitude Azimuth Distance (km) Brightness Sun altitude
Exits shadow 01:30:40 11° 3° (N) 1,403 -0.2 -31.2°
Drops below altitude 10° 01:30:58 10° 8° (N) 1,452 -0.2 -31.2°
Sets 01:34:04 0° 40° (NE) 2,314 0.7 -31.2°
